Previsão horária em Abasolo

Hoje, 14 Abril, Quarta-feira

Tempo Temperatura Precipitação Vento Pressão Humidade
00:00 +26°C° 0 mm 2 m/s 752 mmHg 92%
01:00 +26°C° 0 mm 2 m/s 752 mmHg 92%
02:00 +25°C° 0 mm 2 m/s 751 mmHg 92%
03:00 +25°C° 0 mm 1 m/s 752 mmHg 89%
04:00 +25°C° 0 mm 1 m/s 752 mmHg 87%
05:00 +25°C° 0 mm 1 m/s 752 mmHg 86%
06:00 +27°C° 0 mm 1 m/s 753 mmHg 77%
07:00 +29°C° 0 mm 2 m/s 753 mmHg 68%
08:00 +33°C° 0 mm 3 m/s 753 mmHg 59%
09:00 +35°C° 0 mm 4 m/s 752 mmHg 51%
10:00 +37°C° 0 mm 4 m/s 752 mmHg 43%
11:00 +41°C° 0 mm 4 m/s 751 mmHg 35%
12:00 +41°C° 0 mm 5 m/s 750 mmHg 33%
13:00 +42°C° 0 mm 6 m/s 749 mmHg 32%
14:00 +44°C° 0 mm 7 m/s 749 mmHg 31%
15:00 +40°C° 0.1 mm 7 m/s 749 mmHg 40%
16:00 +36°C° 0.1 mm 7 m/s 749 mmHg 50%
17:00 +33°C° 0.1 mm 7 m/s 749 mmHg 60%
18:00 +30°C° 0 mm 5 m/s 750 mmHg 66%
19:00 +29°C° 0 mm 4 m/s 750 mmHg 73%
20:00 +28°C° 0 mm 3 m/s 751 mmHg 80%
21:00 +28°C° 0 mm 3 m/s 751 mmHg 82%
22:00 +27°C° 0 mm 2 m/s 751 mmHg 84%
23:00 +27°C° 0 mm 2 m/s 751 mmHg 86%

Amanhã, 15 Abril, Quinta-feira

Tempo Temperatura Precipitação Vento Pressão Humidade
00:00 +27°C° 0 mm 2 m/s 751 mmHg 85%
01:00 +26°C° 0 mm 1 m/s 751 mmHg 85%
02:00 +26°C° 0 mm 1 m/s 750 mmHg 85%
03:00 +25°C° 0 mm 1 m/s 750 mmHg 88%
04:00 +25°C° 0 mm 2 m/s 751 mmHg 90%
05:00 +25°C° 0 mm 2 m/s 751 mmHg 92%
06:00 +27°C° 0 mm 3 m/s 751 mmHg 83%
07:00 +29°C° 0 mm 3 m/s 752 mmHg 74%
08:00 +30°C° 0 mm 4 m/s 752 mmHg 65%
09:00 +34°C° 0 mm 4 m/s 752 mmHg 55%
10:00 +36°C° 0 mm 4 m/s 751 mmHg 46%
11:00 +40°C° 0 mm 4 m/s 750 mmHg 37%
12:00 +41°C° 0 mm 4 m/s 749 mmHg 34%
13:00 +41°C° 0 mm 5 m/s 748 mmHg 32%
14:00 +42°C° 0 mm 6 m/s 747 mmHg 30%
15:00 +40°C° 0 mm 7 m/s 747 mmHg 38%
16:00 +36°C° 0 mm 7 m/s 747 mmHg 46%
17:00 +33°C° 0 mm 7 m/s 747 mmHg 54%
18:00 +30°C° 0.3 mm 6 m/s 748 mmHg 65%
19:00 +29°C° 0.3 mm 5 m/s 749 mmHg 76%
20:00 +27°C° 0.3 mm 4 m/s 750 mmHg 88%
21:00 +26°C° 0.2 mm 3 m/s 750 mmHg 90%
22:00 +26°C° 0.2 mm 3 m/s 750 mmHg 92%
23:00 +26°C° 0.2 mm 2 m/s 750 mmHg 95%

Depois de amanhã, 16 Abril, Sexta-feira

Tempo Temperatura Precipitação Vento Pressão Humidade
00:00 +26°C° 0 mm 2 m/s 749 mmHg 95%
01:00 +26°C° 0 mm 2 m/s 749 mmHg 96%
02:00 +25°C° 0 mm 2 m/s 748 mmHg 96%
03:00 +25°C° 0 mm 2 m/s 748 mmHg 96%
04:00 +25°C° 0 mm 2 m/s 748 mmHg 96%
05:00 +25°C° 0 mm 1 m/s 748 mmHg 95%
06:00 +27°C° 0 mm 2 m/s 749 mmHg 86%
07:00 +28°C° 0 mm 2 m/s 749 mmHg 76%
08:00 +30°C° 0 mm 3 m/s 749 mmHg 67%
09:00 +34°C° 0 mm 3 m/s 748 mmHg 55%
10:00 +36°C° 0 mm 3 m/s 748 mmHg 44%
11:00 +39°C° 0 mm 3 m/s 747 mmHg 33%
12:00 +41°C° 0 mm 4 m/s 746 mmHg 30%
13:00 +43°C° 0 mm 5 m/s 745 mmHg 27%
14:00 +45°C° 0 mm 5 m/s 744 mmHg 25%
15:00 +41°C° 0 mm 6 m/s 744 mmHg 34%
16:00 +38°C° 0 mm 7 m/s 744 mmHg 44%
17:00 +33°C° 0 mm 8 m/s 745 mmHg 53%
18:00 +32°C° 0 mm 6 m/s 746 mmHg 64%
19:00 +29°C° 0 mm 5 m/s 746 mmHg 75%
20:00 +27°C° 0 mm 3 m/s 747 mmHg 86%
21:00 +27°C° 0 mm 3 m/s 748 mmHg 88%
22:00 +26°C° 0 mm 2 m/s 748 mmHg 90%
23:00 +26°C° 0 mm 1 m/s 748 mmHg 92%

17 Abril, Sábado

Tempo Temperatura Precipitação Vento Pressão Humidade
00:00 +26°C° 0 mm 1 m/s 748 mmHg 93%
01:00 +26°C° 0 mm 1 m/s 748 mmHg 93%
02:00 +25°C° 0 mm 1 m/s 748 mmHg 94%
03:00 +25°C° 0 mm 2 m/s 748 mmHg 94%
04:00 +25°C° 0 mm 2 m/s 749 mmHg 94%
05:00 +25°C° 0 mm 2 m/s 749 mmHg 94%
06:00 +27°C° 0.1 mm 3 m/s 750 mmHg 85%
07:00 +28°C° 0.1 mm 4 m/s 751 mmHg 76%
08:00 +30°C° 0.1 mm 6 m/s 752 mmHg 67%
09:00 +29°C° 0.3 mm 6 m/s 752 mmHg 65%
10:00 +29°C° 0.3 mm 7 m/s 752 mmHg 63%
11:00 +29°C° 0.3 mm 8 m/s 752 mmHg 61%
12:00 +26°C° 0.3 mm 7 m/s 752 mmHg 62%
13:00 +23°C° 0.3 mm 7 m/s 753 mmHg 64%
14:00 +20°C° 0.3 mm 7 m/s 753 mmHg 66%
15:00 +20°C° 0 mm 6 m/s 753 mmHg 65%
16:00 +19°C° 0 mm 6 m/s 753 mmHg 64%
17:00 +19°C° 0 mm 6 m/s 753 mmHg 63%
18:00 +19°C° 0.1 mm 5 m/s 754 mmHg 64%
19:00 +18°C° 0.1 mm 4 m/s 755 mmHg 66%
20:00 +18°C° 0.1 mm 4 m/s 756 mmHg 68%
21:00 +18°C° 0.1 mm 4 m/s 756 mmHg 66%
22:00 +18°C° 0.1 mm 3 m/s 757 mmHg 64%
23:00 +18°C° 0.1 mm 3 m/s 757 mmHg 62%

18 Abril, Domingo

Tempo Temperatura Precipitação Vento Pressão Humidade
00:00 +18°C° 0 mm 3 m/s 756 mmHg 61%
01:00 +19°C° 0 mm 3 m/s 756 mmHg 61%
02:00 +19°C° 0 mm 3 m/s 756 mmHg 60%
03:00 +18°C° 0.1 mm 4 m/s 756 mmHg 62%
04:00 +18°C° 0.1 mm 4 m/s 756 mmHg 65%
05:00 +18°C° 0.1 mm 4 m/s 757 mmHg 68%
06:00 +17°C° 0.1 mm 5 m/s 757 mmHg 70%
07:00 +17°C° 0.1 mm 5 m/s 758 mmHg 72%
08:00 +17°C° 0.1 mm 5 m/s 758 mmHg 73%
09:00 +17°C° 0.1 mm 5 m/s 758 mmHg 72%
10:00 +17°C° 0.1 mm 5 m/s 758 mmHg 70%
11:00 +18°C° 0.1 mm 4 m/s 758 mmHg 68%
12:00 +17°C° 0 mm 5 m/s 758 mmHg 66%
13:00 +17°C° 0 mm 5 m/s 758 mmHg 64%
14:00 +17°C° 0 mm 5 m/s 757 mmHg 61%
15:00 +17°C° 0 mm 5 m/s 757 mmHg 61%
16:00 +17°C° 0 mm 5 m/s 757 mmHg 62%
17:00 +16°C° 0 mm 5 m/s 757 mmHg 62%
18:00 +16°C° 0.1 mm 5 m/s 757 mmHg 65%
19:00 +15°C° 0.1 mm 4 m/s 758 mmHg 68%
20:00 +14°C° 0.1 mm 4 m/s 758 mmHg 71%
21:00 +15°C° 0.2 mm 4 m/s 758 mmHg 72%
22:00 +16°C° 0.2 mm 3 m/s 758 mmHg 72%
23:00 +16°C° 0.2 mm 3 m/s 758 mmHg 73%

19 Abril, Segunda-feira

Tempo Temperatura Precipitação Vento Pressão Humidade
00:00 +16°C° 0 mm 3 m/s 758 mmHg 72%
01:00 +16°C° 0 mm 2 m/s 758 mmHg 70%
02:00 +17°C° 0 mm 2 m/s 757 mmHg 69%
03:00 +17°C° 0 mm 2 m/s 757 mmHg 68%
04:00 +17°C° 0 mm 2 m/s 757 mmHg 68%
05:00 +17°C° 0 mm 2 m/s 758 mmHg 67%
06:00 +17°C° 0 mm 2 m/s 758 mmHg 65%
07:00 +18°C° 0 mm 2 m/s 758 mmHg 63%
08:00 +18°C° 0 mm 2 m/s 758 mmHg 61%
09:00 +19°C° 0 mm 3 m/s 758 mmHg 59%
10:00 +20°C° 0 mm 3 m/s 757 mmHg 57%
11:00 +21°C° 0 mm 3 m/s 757 mmHg 55%
12:00 +23°C° 0 mm 4 m/s 756 mmHg 53%
13:00 +25°C° 0 mm 4 m/s 755 mmHg 51%
14:00 +26°C° 0 mm 4 m/s 754 mmHg 49%
15:00 +25°C° 0 mm 4 m/s 754 mmHg 52%
16:00 +25°C° 0 mm 5 m/s 753 mmHg 55%
17:00 +25°C° 0 mm 5 m/s 753 mmHg 58%
18:00 +22°C° 0 mm 4 m/s 753 mmHg 64%
19:00 +21°C° 0 mm 3 m/s 754 mmHg 70%
20:00 +20°C° 0 mm 2 m/s 754 mmHg 75%
21:00 +20°C° 0 mm 2 m/s 754 mmHg 75%
22:00 +20°C° 0 mm 2 m/s 754 mmHg 75%
23:00 +21°C° 0 mm 1 m/s 754 mmHg 75%
Mostrar mais

Necessitamos do seu Consentimento

A Meteoprog e os seus Fornecedores de Serviços podem armazenar e aceder a dados pessoais como cookies, identificadores do dispositivo ou outras tecnologias semelhantes existentes no seu dispositivo e processar estes dados para personalizar conteúdos e anúncios, assim como funcionalidades nas redes sociais e análise de tráfego.

  • Armazenar e/ou aceder a informações no seu dispositivo

    Os cookies, identificadores do dispositivo ou outras informações podem ser armazenados ou acedidos no seu dispositivo, para os fins acima indicados.

  • Anúncios e conteúdos personalizados, medição de anúncios e conteúdos, dados sobre o público-alvo e desenvolvimento de produtos

    Os anúncios e os conteúdos podem ser personalizados com base num perfil. Podem ser adicionados dados adicionais para uma maior personalização dos anúncios e dos conteúdos. A eficácia dos anúncios e dos conteúdos pode ser medida. Podem ser obtidas informações sobre o público que visualizou os anúncios e os conteúdos. Estes dados podem ser usados para desenvolver ou melhorar sistemas, softwares ou a experiência do utilizador.

Ao clicar em "Eu concordo”, permitirá o uso de cookies, identificadores do dispositivo e web beacons mencionados ou outras tecnologias semelhantes. As configurações do navegador do seu dispositivo podem ser alteradas.

Para certos fins, podem ser invocados interesses legítimos ao invés de consentimento. Pode ler mais informação sobre este assunto na nossa Política de Privacidade e Cookies.